+ View the NASA Portal
+ Center for Near-Earth Object Studies
IMPORTANT:
The SSD Announcement email list is now available. Major changes are coming in the near future, including possible hostname and/or URL changes. To be notified of such changes, subscribe to this email list.
Please visit
this page
for more details.
Don't show this message again
JPL Small-Body Database Browser
Search:
[
help
]
173671 (2001 MV15)
Classification:
Main-belt Asteroid
SPK-ID:
2173671
[
Ephemeris
|
Orbit Diagram
|
Orbital Elements
|
Mission Design
|
Physical Parameters
|
Discovery Circumstances
|
Close-Approach Data
]
[ show orbit diagram ]
Orbital Elements at Epoch 2458600.5 (2019-Apr-27.0) TDB
Reference:
JPL 13
(heliocentric ecliptic J2000)
Element
Value
Uncertainty (1-sigma)
Units
e
.2559061038577307
5.959e-08
a
2.648753228169426
2.0792e-08
au
q
1.970921109468002
1.5222e-07
au
i
17.63144184198797
4.1149e-06
deg
node
273.4623234563139
2.2372e-05
deg
peri
1.452016740046802
2.8184e-05
deg
M
33.26028038931653
1.6533e-05
deg
t
p
2458455.026435390312
(2018-Dec-02.52643539)
7.1218e-05
TDB
period
1574.565296698741
4.31
1.854e-05
5.076e-08
d
yr
n
.2286345321815372
2.6921e-09
deg/d
Q
3.32658534687085
2.6113e-08
au
Orbit Determination Parameters
# obs. used (total)
332
data-arc span
6724 days (18.41 yr)
first obs. used
2001-06-27
last obs. used
2019-11-24
planetary ephem.
DE431
SB-pert. ephem.
SB431-N16
condition code
0
norm. resid. RMS
.47975
source
ORB
producer
Otto Matic
solution date
2019-Dec-04 14:34:27
Additional Information
Earth MOID
= .954115 au
Jupiter MOID
= 1.81627 au
T_jup
= 3.279
[ show covariance matrix ]
[
Ephemeris
|
Orbit Diagram
|
Orbital Elements
|
Mission Design
|
Physical Parameters
|
Discovery Circumstances
|
Close-Approach Data
]
Physical Parameter Table
Parameter
Symbol
Value
Units
Sigma
Reference
Notes
absolute magnitude
H
15.6
n/a
MPO449898
diameter
diameter
2.863
km
0.141
urn:nasa:pds:neowise_diameters_albedos::2.0[mainbelt] (http://adsabs.harvard.edu/abs/2011ApJ...741...68M)
geometric albedo
albedo
0.136
0.036
urn:nasa:pds:neowise_diameters_albedos::2.0[mainbelt] (http://adsabs.harvard.edu/abs/2011ApJ...741...68M)
173671 (2001 MV15)
Discovered 2001-Jun-27 by NEAT at Palomar
Reference:
20080122/Numbers.arc
Last Updated:
2008-01-28
[ show close-approach data ]
[
Ephemeris
|
Orbit Diagram
|
Orbital Elements
|
Mission Design
|
Physical Parameters
|
Discovery Circumstances
|
Close-Approach Data
]
2019-Dec-11 23:18 UT
(server date/time)
Site Manager:
Ryan S. Park
Webmaster
:
Alan B. Chamberlin